New Castle, PA

9:51 PM EDT on July 25, 2017 (GMT -0400)
New Castle Municipal

Weather History for KUCP - September, 2013

Change the Weather History Date:

Friday, September 6, 2013

  Actual Average Record
Temperature  
Mean Temperature 56 °F -  
Max Temperature 72 °F 78 °F 97 °F (1954)
Min Temperature 39 °F 53 °F 36 °F (1962)
Degree Days  
Heating Degree Days 10    
Growing Degree Days 6 (Base 50)    
Moisture  
Dew Point 44 °F    
Average Humidity 80    
Maximum Humidity 100    
Minimum Humidity 34    
Precipitation  
Precipitation 0.00 in - - ()
Sea Level Pressure  
Sea Level Pressure 30.29 in    
Wind  
Wind Speed 1 mph (East)    
Max Wind Speed 6 mph    
Max Gust Speed -    
Visibility 7 miles    
Events Fog    
Averages and records for this station are not official NWS values.
T = Trace of Precipitation, MM = Missing Value Source: NWS Daily Summary

Daily Weather History Graph

Daily Weather History Graph

Search for Another Location

Airport or City:

Trip Planner

Search our weather history database for the weather conditions in past years. The results will help you decide how hot, cold, wet, or windy it might be!

Date:

Astronomy

Sep. 06, 2013 Rise Set
Actual Time 6:53 AM EDT 7:45 PM EDT
Civil Twilight 6:25 AM EDT 8:13 PM EDT
Nautical Twilight 5:52 AM EDT 8:46 PM EDT
Astronomical Twilight 5:17 AM EDT 9:20 PM EDT
Moon 8:05 AM EDT (9/6) 8:07 PM EDT (9/6)
Length of Visible Light 13h 47m
Length of Day
12h 52m
New Moon, 1% of the Moon is Illuminated
Sep 6
New Moon
Sep 12
First Quarter
Sep 19
Full
Sep 26
Last Quarter
Oct 4
New

Hourly Weather History & Observations

Time (EDT) Temp. Dew Point Humidity Pressure Visibility Wind Dir Wind Speed Gust Speed Precip Events Conditions
12:56 AM 45.9 °F 45.0 °F 97% 30.30 in 10.0 mi Calm Calm - N/A   Clear
1:56 AM 45.9 °F 45.0 °F 97% 30.31 in 10.0 mi Calm Calm - N/A   Clear
2:56 AM 45.0 °F 45.0 °F 100% 30.31 in 10.0 mi Calm Calm - N/A   Clear
3:39 AM 44.6 °F 42.8 °F 93% 30.27 in 1.2 mi Calm Calm - N/A   Clear
3:42 AM 42.8 °F 42.8 °F 100% 30.27 in 0.8 mi Calm Calm - N/A   Clear
3:48 AM 44.6 °F 44.6 °F 100% 30.27 in 1.5 mi Calm Calm - N/A   Clear
3:56 AM 43.9 °F 43.9 °F 100% 30.31 in 10.0 mi Calm Calm - N/A   Clear
4:56 AM 43.0 °F 43.0 °F 100% 30.33 in 10.0 mi Calm Calm - N/A   Clear
5:33 AM 44.6 °F 42.8 °F 93% 30.28 in 1.5 mi Calm Calm - N/A   Clear
5:35 AM 44.6 °F 42.8 °F 93% 30.28 in 0.8 mi Calm Calm - N/A   Clear
5:38 AM 44.6 °F 44.6 °F 100% 30.28 in 0.2 mi Calm Calm - N/A Fog Fog
5:56 AM 43.0 °F 43.0 °F 100% 30.33 in 0.2 mi Calm Calm - N/A Fog Fog
6:10 AM 42.8 °F 42.8 °F 100% 30.29 in 0.8 mi Calm Calm - N/A   Clear
6:12 AM 42.8 °F 42.8 °F 100% 30.29 in 1.5 mi Calm Calm - N/A   Clear
6:14 AM 42.8 °F 42.8 °F 100% 30.29 in 3.0 mi Calm Calm - N/A   Clear
6:56 AM 41.0 °F 41.0 °F 100% 30.34 in 2.5 mi Calm Calm - N/A   Clear
7:08 AM 39.2 °F 39.2 °F 100% 30.30 in 1.5 mi Calm Calm - N/A   Clear
7:13 AM 41.0 °F 41.0 °F 100% 30.30 in 3.0 mi Calm Calm - N/A   Clear
7:56 AM 43.0 °F 43.0 °F 100% 30.36 in 10.0 mi Calm Calm - N/A   Clear
8:56 AM 50.9 °F 47.8 °F 89% 30.36 in 10.0 mi Calm Calm - N/A   Clear
9:56 AM 56.8 °F 48.9 °F 75% 30.36 in 10.0 mi Calm Calm - N/A   Clear
10:56 AM 63.0 °F 47.8 °F 58% 30.35 in 10.0 mi South 5.8 mph - N/A   Clear
11:56 AM 63.9 °F 46.9 °F 54% 30.34 in 10.0 mi ENE 3.5 mph - N/A   Clear
12:56 PM 65.8 °F 41.9 °F 42% 30.32 in 10.0 mi NE 4.6 mph - N/A   Clear
1:56 PM 68.0 °F 39.9 °F 36% 30.30 in 10.0 mi ENE 5.8 mph - N/A   Clear
2:56 PM 70.9 °F 43.0 °F 37% 30.27 in 10.0 mi SE 4.6 mph - N/A   Clear
3:56 PM 72.0 °F 41.9 °F 34% 30.25 in 10.0 mi Variable 4.6 mph - N/A   Clear
4:56 PM 70.9 °F 41.0 °F 34% 30.24 in 10.0 mi Calm Calm - N/A   Clear
5:56 PM 70.9 °F 41.9 °F 35% 30.24 in 10.0 mi Calm Calm - N/A   Clear
6:56 PM 68.0 °F 45.0 °F 43% 30.24 in 10.0 mi Calm Calm - N/A   Clear
7:56 PM 59.9 °F 45.9 °F 60% 30.22 in 10.0 mi Calm Calm - N/A   Clear
8:56 PM 56.8 °F 45.9 °F 67% 30.22 in 10.0 mi Calm Calm - N/A   Clear
9:56 PM 52.9 °F 47.8 °F 83% 30.23 in 10.0 mi Calm Calm - N/A   Clear
10:56 PM 50.9 °F 48.9 °F 93% 30.21 in 10.0 mi Calm Calm - N/A   Clear
11:56 PM 48.9 °F 48.9 °F 100% 30.20 in 10.0 mi Calm Calm - N/A   Clear